Content
SEND FEEDBACK

Daily
Averages
Monthly
Summary
Ukraine

UZHGOROD, UKRAINE


Home > Europe > Ukraine
Elevation: 387 feet     Latitude: 48 38N     Longitude: 022 16E

WEATHER
 
SELECT A DAY
Number of Records: 123,937;   Date Range: 6/10/02 - 10/22/14
 
SHARE

PRINT THIS DATA

[ ← Previous Day ]
WEATHER ALMANAC - FEBRUARY 13, 2013
[ Next Day → ]
[ °C ]   °F
Weather ElementAverageHighLow
Temperature42.5 °F50 °F (2:00 pm)33.8 °F (9:00 pm)
Dewpoint30.5 °F35.6 °F (6:00 pm)23 °F (9:00 am)
Humidity64.1 %87 % (9:00 pm)43 % (4:00 pm)
Barometer30.00 in30.01 in (9:00 am)29.98 in (6:30 am)
Wind Speed2.9 mph6.7 mph (3:00 pm)
Weather ElementAverage
Visibility6.2 mi
Wind DirectionSSW (190 °)

Weather ElementTotal
Precipitation---
Heating Degree Days23.1 (Base 65)
Averaged from 29 records on February 13, 2013
WEATHER CONDITIONS BREAKOUT
WIND DIRECTION BREAKOUT
WEATHER BY HOUR - FEBRUARY 13, 2013
[ °C ]   °F
Local TimeTemperatureDewpointHumidityBarometerVisibilityWind DirectionWind SpeedGust SpeedPrecipitationEventsConditions
6:30 AM35.6 °F30.2 °F81 %29.98 in6.2 miCalmOvercast
7:00 AM35.6 °F30.2 °F81 %29.98 in6.2 miCalmOvercast
7:30 AM35.6 °F30.2 °F81 %29.98 in6.2 miEast (90°)2.2 mphOvercast
8:00 AM35.6 °F30.2 °F81 %29.98 in6.2 miEast (80°)2.2 mphOvercast
8:30 AM35.6 °F30.2 °F81 %29.98 in6.2 miEast (100°)4.5 mphOvercast
9:00 AM39.2 °F23.0 °F52 %30.01 in6.2 miEast (100°)4.5 mphOvercast
9:30 AM39.2 °F23.0 °F52 %30.01 in6.2 miNW (320°)4.5 mphOvercast
10:00 AM37.4 °F28.4 °F70 %30.01 in6.2 miCalmOvercast
10:30 AM37.4 °F28.4 °F70 %30.01 in6.2 miWNW (300°)4.5 mphOvercast
11:00 AM41.0 °F30.2 °F65 %30.01 in6.2 miWNW (300°)4.5 mphMostly Cloudy
11:30 AM41.0 °F30.2 °F65 %30.01 in6.2 miWNW (300°)4.5 mphMostly Cloudy
12:00 PM44.6 °F33.8 °F66 %30.01 in6.2 miWest (280°)2.2 mphMostly Cloudy
12:30 PM44.6 °F33.8 °F66 %30.01 in6.2 miNNW (340°)4.5 mphMostly Cloudy
1:00 PM48.2 °F32.0 °F54 %30.01 inNorthMostly Cloudy
1:30 PM48.2 °F32.0 °F54 %30.01 in6.2 miNorth (360°)4.5 mphMostly Cloudy
2:00 PM50.0 °F33.8 °F54 %30.01 in6.2 miNNW (330°)4.5 mphMostly Cloudy
2:30 PM50.0 °F33.8 °F54 %30.01 in6.2 miNNW (330°)4.5 mphMostly Cloudy
3:00 PM50.0 °F32.0 °F50 %30.01 in6.2 miNNW (340°)6.7 mphMostly Cloudy
4:00 PM50.0 °F28.4 °F43 %30.01 in6.2 miNNW (340°)6.7 mphMostly Cloudy
4:30 PM50.0 °F28.4 °F43 %30.01 in6.2 miNNW (340°)4.5 mphMostly Cloudy
5:00 PM50.0 °F28.4 °F43 %30.01 in6.2 miNW (320°)2.2 mphMostly Cloudy
5:30 PM50.0 °F28.4 °F43 %29.98 in6.2 miNW (320°)2.2 mphMostly Cloudy
6:00 PM46.4 °F35.6 °F66 %29.98 in6.2 miCalmMostly Cloudy
6:30 PM46.4 °F35.6 °F66 %30.01 in6.2 miCalmScattered Clouds
7:00 PM41.0 °F30.2 °F65 %30.01 in6.2 miNW (320°)2.2 mphScattered Clouds
7:30 PM41.0 °F30.2 °F65 %30.01 in6.2 miCalmScattered Clouds
8:00 PM37.4 °F32.0 °F81 %30.01 in6.2 miWNW (300°)4.5 mphScattered Clouds
8:30 PM37.4 °F32.0 °F81 %30.01 in6.2 miCalmScattered Clouds
9:00 PM33.8 °F30.2 °F87 %30.01 in6.2 miCalmClear
Hourly data recorded from UKLU, located miles away from Uzhgorod, Ukraine







STORIES FROM OUR PARTNERS